This is the latest recevied weather packets stored in our database for station/object K2NV. If no packets are shown the sender has not sent any weather packets the latest 10 day(s).
| Time | Temp. | Humidity | Pressure | Rain* | Wind** | Luminosity | Snow |
|---|---|---|---|---|---|---|---|
| 1777942458 | 17.78° C | 52% | 1000.8 hPa | 0 mm | - | - | - |
| 1777942156 | 17.78° C | 53% | 1000.7 hPa | 0 mm | - | - | - |
| 1777941557 | 17.78° C | 51% | 1000.7 hPa | 0 mm | - | - | - |
| 1777941256 | 18.33° C | 51% | 1000.7 hPa | 0 mm | - | - | - |
| 1777940657 | 18.33° C | 49% | 1000.9 hPa | 0 mm | - | - | - |
| 1777940356 | 18.89° C | 49% | 1000.9 hPa | 0 mm | - | - | - |
| 1777939757 | 19.44° C | 47% | 1000.9 hPa | 0 mm | - | - | - |
| 1777939456 | 19.44° C | 47% | 1000.9 hPa | 0 mm | - | - | - |
| 1777938857 | 20° C | 45% | 1001 hPa | 0 mm | - | - | - |
| 1777938558 | 20° C | 45% | 1000.9 hPa | 0 mm | - | - | - |
| 1777938261 | 20° C | 44% | 1001 hPa | 0 mm | - | - | - |
| 1777937956 | 20.56° C | 44% | 1001 hPa | 0 mm | - | - | - |
| 1777937658 | 20.56° C | 44% | 1001.1 hPa | 0 mm | - | - | - |
| 1777937057 | 20.56° C | 44% | 1001.1 hPa | 0 mm | - | - | - |
| 1777936758 | 20.56° C | 44% | 1001.1 hPa | 0 mm | - | - | - |
| 1777936457 | 20.56° C | 44% | 1001.1 hPa | 0 mm | - | - | - |
| 1777935856 | 21.11° C | 42% | 1001.2 hPa | 0 mm | - | - | - |
| 1777935257 | 21.11° C | 43% | 1001.3 hPa | 0 mm | - | - | - |
| 1777934958 | 21.11° C | 45% | 1001.3 hPa | 0 mm | - | - | - |
| 1777934356 | 20.56° C | 46% | 1001.4 hPa | 0 mm | - | - | - |
| 1777933758 | 20.56° C | 50% | 1001.4 hPa | 0 mm | - | - | - |
| 1777933457 | 20.56° C | 49% | 1001.3 hPa | 0 mm | - | - | - |
| 1777933158 | 20.56° C | 49% | 1001.4 hPa | 0 mm | - | - | - |
| 1777932858 | 20.56° C | 48% | 1001.3 hPa | 0 mm | - | - | - |
| 1777932558 | 20.56° C | 49% | 1001.3 hPa | 0 mm | - | - | - |
* Rain latest hour (hover to see other rain measurements)
** Current wind speed in m/s (hover to see current wind gust speed)